Satellite: NOAA-18
Catalog number: 28654
Epoch time:      08080.49475621
Element set:     360
Inclination:      098.8599 deg
RA of node:       022.5486 deg
Eccentricity:    0.0013776
Arg of perigee:   201.3510 deg
Mean anomaly:     158.7081 deg
Mean motion:   14.11144814 rev/day
Decay rate:      -2.04e-06 rev/day^2
Epoch rev:           14596
Checksum:              309

/EX
SB KEPS @ AMSAT  $ORB08080.M
Orbital Elements  08080.MISC

HR AMSAT ORBITAL ELEMENTS FOR MANNED AND MISCELLANEOUS SATELLITES
FROM WA5QGD FORT WORTH,TX March 20, 2008
Send Subscribe/unsubscribe to KEPS at 
http://www.amsat.org/mailman/listinfo/keps
BID: ORB08080.M
TO ALL RADIO AMATEURS BT

Satellite: HUBBLE
Catalog number: 20580
Epoch time:      08079.67564565
Element set:      96
Inclination:      028.4678 deg
RA of node:       187.0286 deg
Eccentricity:    0.0003952
Arg of perigee:   156.7919 deg
Mean anomaly:     203.2848 deg
Mean motion:   15.00351632 rev/day
Decay rate:       3.96e-06 rev/day^2
Epoch rev:           78152
Checksum:              325

Satellite: UARS
Catalog number: 21701
Epoch time:      08079.79297454
Element set:    0326
Inclination:      056.9740 deg
RA of node:       191.2476 deg
Eccentricity:    0.0086567
Arg of perigee:   011.9503 deg
Mean anomaly:     348.3580 deg
Mean motion:   15.50919748 rev/day
Decay rate:      3.898e-05 rev/day^2
Epoch rev:           90862
Checksum:              346

Satellite: PO-34
Catalog number: 25520
Epoch time:      08079.34059552
Element set:     955
Inclination:      028.4596 deg
RA of node:       060.2752 deg
Eccentricity:    0.0005172
Arg of perigee:   026.1995 deg
Mean anomaly:     333.8861 deg
Mean motion:   15.17152709 rev/day
Decay rate:       5.44e-06 rev/day^2
Epoch rev:           51950
Checksum:              313

Satellite: ISS
Catalog number: 25544
Epoch time:      08081.00262771
Element set:     153
Inclination:      051.6390 deg
RA of node:       110.9868 deg
Eccentricity:    0.0001297
Arg of perigee:   299.9711 deg
Mean anomaly:     141.8022 deg
Mean motion:   15.76285268 rev/day
Decay rate:    -4.6364e-04 rev/day^2
Epoch rev:           53461
Checksum:              303

Satellite: OO-38
Catalog number: 26063
Epoch time:      08079.88713160
Element set:     164
Inclination:      100.2007 deg
RA of node:       138.3411 deg
Eccentricity:    0.0037282
Arg of perigee:   101.1753 deg
Mean anomaly:     259.3618 deg
Mean motion:   14.35829707 rev/day
Decay rate:       -4.1e-07 rev/day^2
Epoch rev:           42675
Checksum:              289

Satellite: UWE-1
Catalog number: 28892
Epoch time:      08079.69257386
Element set:    0003
Inclination:      098.1055 deg
RA of node:       335.4260 deg
Eccentricity:    0.0017216
Arg of perigee:   332.7234 deg
Mean anomaly:     027.3054 deg
Mean motion:   14.59604691 rev/day
Decay rate:       1.28e-06 rev/day^2
Epoch rev:           12754
Checksum:              301

Satellite: CO-58
Catalog number: 28895
Epoch time:      08079.66299332
Element set:    0975
Inclination:      098.1089 deg
RA of node:       335.7190 deg
Eccentricity:    0.0017785
Arg of perigee:   332.9440 deg
Mean anomaly:     027.0849 deg
Mean motion:   14.59646397 rev/day
Decay rate:       1.00e-06 rev/day^2
Epoch rev:           12742
Checksum:              357

Satellite: NCUBE2
Catalog number: 28897
Epoch time:      08079.70646466
Element set:    0508
Inclination:      098.1067 deg
RA of node:       335.6976 deg
Eccentricity:    0.0017400
Arg of perigee:   334.3250 deg
Mean anomaly:     025.7080 deg
Mean motion:   14.59815400 rev/day
Decay rate:       1.56e-06 rev/day^2
Epoch rev:           11971
Checksum:              313

Satellite: FCAL
Catalog number: 29667
Epoch time:      08080.83617366
Element set:     843
Inclination:      051.6287 deg
RA of node:       063.7367 deg
Eccentricity:    0.0008400
Arg of perigee:   018.7339 deg
Mean anomaly:     341.4104 deg
Mean motion:   16.06299010 rev/day
Decay rate:     7.6319e-04 rev/day^2
Epoch rev:            7231
Checksum:              302

Satellite: FALCON
Catalog number: 30776
Epoch time:      08079.96155076
Element set:    0273
Inclination:      035.4349 deg
RA of node:       334.6021 deg
Eccentricity:    0.0001974
Arg of perigee:   311.6934 deg
Mean anomaly:     048.3612 deg
Mean motion:   15.02917906 rev/day
Decay rate:       5.60e-06 rev/day^2
Epoch rev:           05671
Checksum:              296

Satellite: MAST
Catalog number: 31126
Epoch time:      08079.74383067
Element set:    0283
Inclination:      098.0474 deg
RA of node:       147.7191 deg
Eccentricity:    0.0093807
Arg of perigee:   248.8468 deg
Mean anomaly:     110.2666 deg
Mean motion:   14.53406860 rev/day
Decay rate:        6.8e-07 rev/day^2
Epoch rev:           04902
Checksum:              315

Satellite: CAPE1
Catalog number: 31130
Epoch time:      08080.77613620
Element set:     263
Inclination:      098.0485 deg
RA of node:       147.9233 deg
Eccentricity:    0.0101688
Arg of perigee:   248.0339 deg
Mean anomaly:     111.0019 deg
Mean motion:   14.51942178 rev/day
Decay rate:       1.97e-06 rev/day^2
Epoch rev:            4889
Checksum:              294

/EX



_______________________________________________
Via the Keps mailing list courtesy of AMSAT-NA
http://amsat.org/mailman/listinfo/keps

--- ViaMAIL!/WC v1.60d
 * Origin: Chowdanet (401-724-4410) telnet://chowdanet.com  (1:323/120)